Time,TemperatureF,DewpointF,PressureIn,WindDirection,WindDirectionDegrees,WindSpeedMPH,WindSpeedGustMPH,Humidity,HourlyPrecipIn,Conditions,Clouds,dailyrainin,SolarRadiationWatts/m^2,SoftwareType,DateUTC
2013-01-10 00:04:00,35.8,30.2,29.84,WNW,288,7.0,12.0,80,0.00,,,0.12,0,Wunderground v.1.15,2013-01-10 05:04:00,
2013-01-10 00:34:00,35.4,29.8,29.85,North,353,4.0,4.0,80,0.00,,,0.12,0,Wunderground v.1.15,2013-01-10 05:34:00,
2013-01-10 01:04:00,34.7,29.5,29.85,WNW,301,5.0,8.0,81,0.00,,,0.12,0,Wunderground v.1.15,2013-01-10 06:04:00,
2013-01-10 01:34:00,35.3,29.4,29.86,WNW,291,6.0,12.0,79,0.00,,,0.12,0,Wunderground v.1.15,2013-01-10 06:34:00,
2013-01-10 02:04:00,35.1,29.6,29.87,WNW,290,4.0,13.0,80,0.00,,,0.12,0,Wunderground v.1.15,2013-01-10 07:04:00,
2013-01-10 02:34:00,37.6,30.4,29.88,WNW,299,10.0,10.0,75,0.00,,,0.12,0,Wunderground v.1.15,2013-01-10 07:34:00,
2013-01-10 03:04:00,38.9,31.3,29.89,WNW,297,11.0,20.0,74,0.00,,,0.12,0,Wunderground v.1.15,2013-01-10 08:04:00,
2013-01-10 03:34:00,38.3,31.7,29.90,WNW,295,10.0,22.0,77,0.00,,,0.12,0,Wunderground v.1.15,2013-01-10 08:34:00,
2013-01-10 06:03:00,41.0,30.5,30.00,North,356,12.0,20.0,66,0.00,,,0.12,0,Wunderground v.1.15,2013-01-10 11:03:00,
2013-01-10 06:33:00,41.3,28.9,30.04,North,352,13.0,29.0,61,0.00,,,0.12,0,Wunderground v.1.15,2013-01-10 11:33:00,
2013-01-10 07:03:00,41.1,27.9,30.05,North,357,16.0,35.0,59,0.00,,,0.12,0,Wunderground v.1.15,2013-01-10 12:03:00,
2013-01-10 07:33:00,40.4,28.0,30.06,North,353,13.0,26.0,61,0.00,,,0.12,18,Wunderground v.1.15,2013-01-10 12:33:00,
2013-01-10 08:04:00,40.4,28.4,30.08,NNE,25,10.0,10.0,62,0.00,,,0.12,77,Wunderground v.1.15,2013-01-10 13:04:00,
2013-01-10 08:33:00,41.0,28.6,30.09,West,270,13.0,13.0,61,0.00,,,0.13,156,Wunderground v.1.15,2013-01-10 13:33:00,
2013-01-10 09:04:00,41.8,28.9,30.10,NW,307,11.0,11.0,60,0.00,,,0.13,232,Wunderground v.1.15,2013-01-10 14:04:00,
2013-01-10 09:33:00,42.4,28.7,30.12,NE,35,16.0,16.0,58,0.00,,,0.13,295,Wunderground v.1.15,2013-01-10 14:33:00,
2013-01-10 10:04:00,42.7,28.9,30.13,North,6,13.0,35.0,58,0.00,,,0.13,345,Wunderground v.1.15,2013-01-10 15:04:00,
2013-01-10 10:33:00,42.8,28.6,30.13,WNW,291,19.0,19.0,57,0.00,,,0.13,374,Wunderground v.1.15,2013-01-10 15:33:00,
2013-01-10 11:03:00,43.0,28.4,30.12,NNW,331,21.0,21.0,56,0.00,,,0.13,401,Wunderground v.1.15,2013-01-10 16:03:00,
2013-01-10 11:33:00,43.3,28.6,30.13,NNE,28,17.0,17.0,56,0.00,,,0.13,410,Wunderground v.1.15,2013-01-10 16:33:00,
2013-01-10 12:03:00,43.2,28.1,30.12,NNE,25,23.0,44.0,55,0.00,,,0.14,404,Wunderground v.1.15,2013-01-10 17:03:00,
2013-01-10 12:33:00,43.9,28.3,30.14,WNW,299,13.0,33.0,54,0.00,,,0.00,371,Wunderground v.1.15,2013-01-10 17:33:00,
2013-01-10 13:04:00,43.8,28.2,30.15,North,5,14.0,14.0,54,0.00,,,0.00,338,Wunderground v.1.15,2013-01-10 18:04:00,
2013-01-10 13:33:00,44.2,27.7,30.16,NNE,28,12.0,12.0,52,0.00,,,0.00,274,Wunderground v.1.15,2013-01-10 18:33:00,
2013-01-10 14:04:00,44.2,27.7,30.18,North,358,14.0,14.0,52,0.00,,,0.00,30,Wunderground v.1.15,2013-01-10 19:04:00,
2013-01-10 14:33:00,44.2,27.2,30.19,NW,311,13.0,32.0,51,0.00,,,0.00,26,Wunderground v.1.15,2013-01-10 19:33:00,
2013-01-10 15:04:00,43.8,26.8,30.21,NNE,15,14.0,28.0,51,0.00,,,0.00,23,Wunderground v.1.15,2013-01-10 20:04:00,
2013-01-10 15:34:00,43.0,27.5,30.24,NNE,12,12.0,12.0,54,0.00,,,0.00,18,Wunderground v.1.15,2013-01-10 20:34:00,
2013-01-10 16:04:00,41.8,26.4,30.26,NNE,28,8.0,23.0,54,0.00,,,0.00,11,Wunderground v.1.15,2013-01-10 21:04:00,
2013-01-10 16:33:00,40.7,24.4,30.28,NNW,343,7.0,7.0,52,0.00,,,0.00,0,Wunderground v.1.15,2013-01-10 21:33:00,
2013-01-10 17:04:00,39.5,24.2,30.30,North,5,7.0,7.0,54,0.00,,,0.01,0,Wunderground v.1.15,2013-01-10 22:04:00,